Year,Month,Day,Hour,Minute,Value (Times are PST for temperature in C)
2019,02,23,00,00,0.00
2019,02,23,00,01,0.10
2019,02,23,00,02,0.10
2019,02,23,00,03,0.10
2019,02,23,00,04,0.10
2019,02,23,00,05,0.10
2019,02,23,00,06,0.10
2019,02,23,00,07,0.10
2019,02,23,00,08,0.10
2019,02,23,00,09,0.10
2019,02,23,00,10,0.10
2019,02,23,00,11,0.20
2019,02,23,00,12,0.20
2019,02,23,00,13,0.20
2019,02,23,00,14,0.20
2019,02,23,00,15,0.20
2019,02,23,00,16,0.20
2019,02,23,00,17,0.20
2019,02,23,00,18,0.20
2019,02,23,00,19,0.30
2019,02,23,00,20,0.30
2019,02,23,00,21,0.30
2019,02,23,00,22,0.30
2019,02,23,00,23,0.30
2019,02,23,00,24,0.30
2019,02,23,00,25,0.30
2019,02,23,00,26,0.30
2019,02,23,00,27,0.30
2019,02,23,00,28,0.30
2019,02,23,00,29,0.40
2019,02,23,00,30,0.40
2019,02,23,00,31,0.40
2019,02,23,00,32,0.40
2019,02,23,00,33,0.40
2019,02,23,00,34,0.40
2019,02,23,00,35,0.40
2019,02,23,00,36,0.40
2019,02,23,00,37,0.40
2019,02,23,00,38,0.50
2019,02,23,00,39,0.50
2019,02,23,00,40,0.50
2019,02,23,00,41,0.50
2019,02,23,00,42,0.50
2019,02,23,00,43,0.50
2019,02,23,00,44,0.50
2019,02,23,00,45,0.50
2019,02,23,00,46,0.50
2019,02,23,00,47,0.50
2019,02,23,00,48,0.50
2019,02,23,00,49,0.50
2019,02,23,00,50,0.50
2019,02,23,00,51,0.50
2019,02,23,00,52,0.60
2019,02,23,00,53,0.60
2019,02,23,00,54,0.60
2019,02,23,00,55,0.60
2019,02,23,00,56,0.60
2019,02,23,00,57,0.60
2019,02,23,00,58,0.60
2019,02,23,00,59,0.60
2019,02,23,01,00,0.60
2019,02,23,01,01,0.60
2019,02,23,01,02,0.60
2019,02,23,01,03,0.60
2019,02,23,01,04,0.60
2019,02,23,01,05,0.60
2019,02,23,01,06,0.60
2019,02,23,01,07,0.70
2019,02,23,01,08,0.70
2019,02,23,01,09,0.70
2019,02,23,01,10,0.70
2019,02,23,01,11,0.70
2019,02,23,01,12,0.70
2019,02,23,01,13,0.70
2019,02,23,01,14,0.70
2019,02,23,01,15,0.70
2019,02,23,01,16,0.70
2019,02,23,01,17,0.70
2019,02,23,01,18,0.70
2019,02,23,01,19,0.70
2019,02,23,01,20,0.70
2019,02,23,01,21,0.70
2019,02,23,01,22,0.70
2019,02,23,01,23,0.70
2019,02,23,01,24,0.70
2019,02,23,01,25,0.80
2019,02,23,01,26,0.80
2019,02,23,01,27,0.80
2019,02,23,01,28,0.80
2019,02,23,01,29,0.80
2019,02,23,01,30,0.80
2019,02,23,01,31,0.80
2019,02,23,01,32,0.80
2019,02,23,01,33,0.80
2019,02,23,01,34,0.90
2019,02,23,01,35,0.90
2019,02,23,01,36,0.90
2019,02,23,01,37,0.90
2019,02,23,01,38,0.90
2019,02,23,01,39,0.90
2019,02,23,01,40,0.90
2019,02,23,01,41,1.00
2019,02,23,01,42,1.00
2019,02,23,01,43,1.00
2019,02,23,01,44,1.10
2019,02,23,01,45,1.10
2019,02,23,01,46,1.10
2019,02,23,01,47,1.20
2019,02,23,01,48,1.20
2019,02,23,01,49,1.30
2019,02,23,01,50,1.30
2019,02,23,01,51,1.40
2019,02,23,01,52,1.40
2019,02,23,01,53,1.40
2019,02,23,01,54,1.50
2019,02,23,01,55,1.60
2019,02,23,01,56,1.70
2019,02,23,01,57,1.80
2019,02,23,01,58,1.90
2019,02,23,01,59,2.00
2019,02,23,02,00,2.00
2019,02,23,02,01,2.00
2019,02,23,02,02,1.90
2019,02,23,02,03,1.90
2019,02,23,02,04,1.80
2019,02,23,02,05,1.80
2019,02,23,02,06,1.70
2019,02,23,02,07,1.70
2019,02,23,02,08,1.60
2019,02,23,02,09,1.50
2019,02,23,02,10,1.50
2019,02,23,02,11,1.40
2019,02,23,02,12,1.40
2019,02,23,02,13,1.40
2019,02,23,02,14,1.40
2019,02,23,02,15,1.40
2019,02,23,02,16,1.30
2019,02,23,02,17,1.30
2019,02,23,02,18,1.30
2019,02,23,02,19,1.30
2019,02,23,02,20,1.20
2019,02,23,02,21,1.20
2019,02,23,02,22,1.20
2019,02,23,02,23,1.20
2019,02,23,02,24,1.20
2019,02,23,02,25,1.20
2019,02,23,02,26,1.20
2019,02,23,02,27,1.20
2019,02,23,02,28,1.20
2019,02,23,02,29,1.20
2019,02,23,02,30,1.20
2019,02,23,02,31,1.20
2019,02,23,02,32,1.20
2019,02,23,02,33,1.30
2019,02,23,02,34,1.30
2019,02,23,02,35,1.30
2019,02,23,02,36,1.30
2019,02,23,02,37,1.30
2019,02,23,02,38,1.30
2019,02,23,02,39,1.30
2019,02,23,02,40,1.30
2019,02,23,02,41,1.30
2019,02,23,02,42,1.30
2019,02,23,02,43,1.30
2019,02,23,02,44,1.30
2019,02,23,02,45,1.30
2019,02,23,02,46,1.30
2019,02,23,02,47,1.30
2019,02,23,02,48,1.30
2019,02,23,02,49,1.30
2019,02,23,02,50,1.30
2019,02,23,02,51,1.30
2019,02,23,02,52,1.40
2019,02,23,02,53,1.50
2019,02,23,02,54,1.60
2019,02,23,02,55,1.60
2019,02,23,02,56,1.70
2019,02,23,02,57,1.70
2019,02,23,02,58,1.70
2019,02,23,02,59,1.70
2019,02,23,03,00,1.80
2019,02,23,03,01,1.80
2019,02,23,03,02,1.80
2019,02,23,03,03,1.80
2019,02,23,03,04,1.90
2019,02,23,03,05,1.90
2019,02,23,03,06,1.90
2019,02,23,03,07,1.90
2019,02,23,03,08,1.80
2019,02,23,03,09,1.80
2019,02,23,03,10,1.80
2019,02,23,03,11,1.80
2019,02,23,03,12,1.70
2019,02,23,03,13,1.80
2019,02,23,03,14,1.80
2019,02,23,03,15,1.80
2019,02,23,03,16,1.80
2019,02,23,03,17,1.80
2019,02,23,03,18,1.80
2019,02,23,03,19,1.80
2019,02,23,03,20,1.80
2019,02,23,03,21,1.80
2019,02,23,03,22,1.80
2019,02,23,03,23,1.80
2019,02,23,03,24,1.90
2019,02,23,03,25,1.90
2019,02,23,03,26,2.00
2019,02,23,03,27,2.00
2019,02,23,03,28,2.10
2019,02,23,03,29,2.20
2019,02,23,03,30,2.20
2019,02,23,03,31,2.20
2019,02,23,03,32,2.30
2019,02,23,03,33,2.30
2019,02,23,03,34,2.30
2019,02,23,03,35,2.40
2019,02,23,03,36,2.40
2019,02,23,03,37,2.50
2019,02,23,03,38,2.60
2019,02,23,03,39,2.60
2019,02,23,03,40,2.60
2019,02,23,03,41,2.70
2019,02,23,03,42,2.70
2019,02,23,03,43,2.70
2019,02,23,03,44,2.70
2019,02,23,03,45,2.80
2019,02,23,03,46,2.80
2019,02,23,03,47,2.80
2019,02,23,03,48,2.80
2019,02,23,03,49,2.80
2019,02,23,03,50,2.80
2019,02,23,03,51,2.80
2019,02,23,03,52,2.80
2019,02,23,03,53,2.80
2019,02,23,03,54,2.80
2019,02,23,03,55,2.70
2019,02,23,03,56,2.70
2019,02,23,03,57,2.70
2019,02,23,03,58,2.70
2019,02,23,03,59,2.70
2019,02,23,04,00,2.70
2019,02,23,04,01,2.70
2019,02,23,04,02,2.70
2019,02,23,04,03,2.70
2019,02,23,04,04,2.80
2019,02,23,04,05,2.80
2019,02,23,04,06,2.80
2019,02,23,04,07,2.80
2019,02,23,04,08,2.80
2019,02,23,04,09,2.80
2019,02,23,04,10,2.80
2019,02,23,04,11,2.80
2019,02,23,04,12,2.80
2019,02,23,04,13,2.80
2019,02,23,04,14,2.80
2019,02,23,04,15,2.70
2019,02,23,04,16,2.70
2019,02,23,04,17,2.70
2019,02,23,04,18,2.70
2019,02,23,04,19,2.60
2019,02,23,04,20,2.60
2019,02,23,04,21,2.60
2019,02,23,04,22,2.60
2019,02,23,04,23,2.50
2019,02,23,04,24,2.50
2019,02,23,04,25,2.50
2019,02,23,04,26,2.50
2019,02,23,04,27,2.40
2019,02,23,04,28,2.40
2019,02,23,04,29,2.40
2019,02,23,04,30,2.40
2019,02,23,04,31,2.40
2019,02,23,04,32,2.40
2019,02,23,04,33,2.40
2019,02,23,04,34,2.40
2019,02,23,04,35,2.40
2019,02,23,04,36,2.50
2019,02,23,04,37,2.60
2019,02,23,04,38,2.60
2019,02,23,04,39,2.70
2019,02,23,04,40,2.80
2019,02,23,04,41,2.90
2019,02,23,04,42,2.90
2019,02,23,04,43,3.00
2019,02,23,04,44,3.10
2019,02,23,04,45,3.10
2019,02,23,04,46,3.20
2019,02,23,04,47,3.20
2019,02,23,04,48,3.20
2019,02,23,04,49,3.20
2019,02,23,04,50,3.30
2019,02,23,04,51,3.30
2019,02,23,04,52,3.30
2019,02,23,04,53,3.30
2019,02,23,04,54,3.20
2019,02,23,04,55,3.20
2019,02,23,04,56,3.20
2019,02,23,04,57,3.20
2019,02,23,04,58,3.10
2019,02,23,04,59,3.10
2019,02,23,05,00,3.10
2019,02,23,05,01,3.00
2019,02,23,05,02,2.90
2019,02,23,05,03,2.90
2019,02,23,05,04,2.80
2019,02,23,05,05,2.80
2019,02,23,05,06,2.70
2019,02,23,05,07,2.60
2019,02,23,05,08,2.60
2019,02,23,05,09,2.50
2019,02,23,05,10,2.50
2019,02,23,05,11,2.50
2019,02,23,05,12,2.40
2019,02,23,05,13,2.40
2019,02,23,05,14,2.40
2019,02,23,05,15,2.40
2019,02,23,05,16,2.40
2019,02,23,05,17,2.40
2019,02,23,05,18,2.40
2019,02,23,05,19,2.30
2019,02,23,05,20,2.40
2019,02,23,05,21,2.40
2019,02,23,05,22,2.40
2019,02,23,05,23,2.40
2019,02,23,05,24,2.40
2019,02,23,05,25,2.40
2019,02,23,05,26,2.40
2019,02,23,05,27,2.40
2019,02,23,05,28,2.40
2019,02,23,05,29,2.50
2019,02,23,05,30,2.50
2019,02,23,05,31,2.60
2019,02,23,05,32,2.60
2019,02,23,05,33,2.60
2019,02,23,05,34,2.60
2019,02,23,05,35,2.70
2019,02,23,05,36,2.70
2019,02,23,05,37,2.80
2019,02,23,05,38,2.90
2019,02,23,05,39,2.90
2019,02,23,05,40,3.00
2019,02,23,05,41,3.00
2019,02,23,05,42,3.10
2019,02,23,05,43,3.10
2019,02,23,05,44,3.20
2019,02,23,05,45,3.20
2019,02,23,05,46,3.20
2019,02,23,05,47,3.20
2019,02,23,05,48,3.20
2019,02,23,05,49,3.20
2019,02,23,05,50,3.20
2019,02,23,05,51,3.30
2019,02,23,05,52,3.30
2019,02,23,05,53,3.30
2019,02,23,05,54,3.30
2019,02,23,05,55,3.30
2019,02,23,05,56,3.30
2019,02,23,05,57,3.30
2019,02,23,05,58,3.30
2019,02,23,05,59,3.30
2019,02,23,06,00,3.30
2019,02,23,06,01,3.30
2019,02,23,06,02,3.30
2019,02,23,06,03,3.30
2019,02,23,06,04,3.30
2019,02,23,06,05,3.30
2019,02,23,06,06,3.30
2019,02,23,06,07,3.30
2019,02,23,06,08,3.30
2019,02,23,06,09,3.30
2019,02,23,06,10,3.30
2019,02,23,06,11,3.30
2019,02,23,06,12,3.30
2019,02,23,06,13,3.40
2019,02,23,06,14,3.40
2019,02,23,06,15,3.40
2019,02,23,06,16,3.40
2019,02,23,06,17,3.40
2019,02,23,06,18,3.50
2019,02,23,06,19,3.50
2019,02,23,06,20,3.50
2019,02,23,06,21,3.50
2019,02,23,06,22,3.50
2019,02,23,06,23,3.60
2019,02,23,06,24,3.60
2019,02,23,06,25,3.60
2019,02,23,06,26,3.60
2019,02,23,06,27,3.60
2019,02,23,06,28,3.70
2019,02,23,06,29,3.70
2019,02,23,06,30,3.70
2019,02,23,06,31,3.70
2019,02,23,06,32,3.70
2019,02,23,06,33,3.70
2019,02,23,06,34,3.70
2019,02,23,06,35,3.80
2019,02,23,06,36,3.80
2019,02,23,06,37,3.80
2019,02,23,06,38,3.80
2019,02,23,06,39,3.80
2019,02,23,06,40,3.80
2019,02,23,06,41,3.90
2019,02,23,06,42,3.90
2019,02,23,06,43,3.90
2019,02,23,06,44,3.90
2019,02,23,06,45,3.90
2019,02,23,06,46,4.00
2019,02,23,06,47,4.00
2019,02,23,06,48,4.00
2019,02,23,06,49,4.00
2019,02,23,06,50,4.00
2019,02,23,06,51,4.00
2019,02,23,06,52,4.00
2019,02,23,06,53,4.00
2019,02,23,06,54,4.00
2019,02,23,06,55,4.00
2019,02,23,06,56,3.90
2019,02,23,06,57,3.90
2019,02,23,06,58,3.80
2019,02,23,06,59,3.70
2019,02,23,07,00,3.60
2019,02,23,07,01,3.50
2019,02,23,07,02,3.40
2019,02,23,07,03,3.30
2019,02,23,07,04,3.20
2019,02,23,07,05,3.20
2019,02,23,07,06,3.10
2019,02,23,07,07,3.00
2019,02,23,07,08,3.00
2019,02,23,07,09,2.90
2019,02,23,07,10,2.90
2019,02,23,07,11,2.80
2019,02,23,07,12,2.80
2019,02,23,07,13,2.80
2019,02,23,07,14,2.70
2019,02,23,07,15,2.70
2019,02,23,07,16,2.70
2019,02,23,07,17,2.70
2019,02,23,07,18,2.70
2019,02,23,07,19,2.70
2019,02,23,07,20,2.60
2019,02,23,07,21,2.60
2019,02,23,07,22,2.60
2019,02,23,07,23,2.60
2019,02,23,07,24,2.60
2019,02,23,07,25,2.60
2019,02,23,07,26,2.60
2019,02,23,07,27,2.60
2019,02,23,07,28,2.60
2019,02,23,07,29,2.60
2019,02,23,07,30,2.60
2019,02,23,07,31,2.60
2019,02,23,07,32,2.60
2019,02,23,07,33,2.60
2019,02,23,07,34,2.60
2019,02,23,07,35,2.60
2019,02,23,07,36,2.60
2019,02,23,07,37,2.60
2019,02,23,07,38,2.70
2019,02,23,07,39,2.70
2019,02,23,07,40,2.70
2019,02,23,07,41,2.70
2019,02,23,07,42,2.70
2019,02,23,07,43,2.70
2019,02,23,07,44,2.70
2019,02,23,07,45,2.70
2019,02,23,07,46,2.70
2019,02,23,07,47,2.70
2019,02,23,07,48,2.70
2019,02,23,07,49,2.70
2019,02,23,07,50,2.70
2019,02,23,07,51,2.70
2019,02,23,07,52,2.70
2019,02,23,07,53,2.70
2019,02,23,07,54,2.80
2019,02,23,07,55,2.80
2019,02,23,07,56,2.80
2019,02,23,07,57,2.80
2019,02,23,07,58,2.80
2019,02,23,07,59,2.80
2019,02,23,08,00,2.80
2019,02,23,08,01,2.80
2019,02,23,08,02,2.80
2019,02,23,08,03,2.80
2019,02,23,08,04,2.80
2019,02,23,08,05,2.90
2019,02,23,08,06,2.90
2019,02,23,08,07,2.90
2019,02,23,08,08,2.90
2019,02,23,08,09,2.90
2019,02,23,08,10,2.90
2019,02,23,08,11,2.90
2019,02,23,08,12,2.90
2019,02,23,08,13,2.90
2019,02,23,08,14,2.90
2019,02,23,08,15,2.90
2019,02,23,08,16,2.90
2019,02,23,08,17,2.90
2019,02,23,08,18,2.90
2019,02,23,08,19,2.90
2019,02,23,08,20,2.80
2019,02,23,08,21,2.90
2019,02,23,08,22,2.90
2019,02,23,08,23,3.00
2019,02,23,08,24,3.00
2019,02,23,08,25,3.00
2019,02,23,08,26,3.10
2019,02,23,08,27,3.10
2019,02,23,08,28,3.10
2019,02,23,08,29,3.20
2019,02,23,08,30,3.20
2019,02,23,08,31,3.20
2019,02,23,08,32,3.20
2019,02,23,08,33,3.30
2019,02,23,08,34,3.40
2019,02,23,08,35,3.40
2019,02,23,08,36,3.50
2019,02,23,08,37,3.60
2019,02,23,08,38,3.70
2019,02,23,08,39,3.70
2019,02,23,08,40,3.70
2019,02,23,08,41,3.70
2019,02,23,08,42,3.70
2019,02,23,08,43,3.70
2019,02,23,08,44,3.80
2019,02,23,08,45,3.80
2019,02,23,08,46,3.80
2019,02,23,08,47,3.80
2019,02,23,08,48,3.80
2019,02,23,08,49,3.80
2019,02,23,08,50,3.80
2019,02,23,08,51,3.80
2019,02,23,08,52,3.80
2019,02,23,08,53,3.80
2019,02,23,08,54,3.90
2019,02,23,08,55,3.90
2019,02,23,08,56,3.90
2019,02,23,08,57,3.90
2019,02,23,08,58,3.90
2019,02,23,08,59,3.90
2019,02,23,09,00,3.90
2019,02,23,09,01,3.90
2019,02,23,09,02,3.90
2019,02,23,09,03,3.90
2019,02,23,09,04,3.90
2019,02,23,09,05,3.90
2019,02,23,09,06,3.90
2019,02,23,09,07,3.90
2019,02,23,09,08,3.90
2019,02,23,09,09,3.90
2019,02,23,09,10,3.90
2019,02,23,09,11,3.90
2019,02,23,09,12,3.90
2019,02,23,09,13,4.00
2019,02,23,09,14,4.00
2019,02,23,09,15,4.00
2019,02,23,09,16,4.00
2019,02,23,09,17,4.10
2019,02,23,09,18,4.10
2019,02,23,09,19,4.10
2019,02,23,09,20,4.10
2019,02,23,09,21,4.10
2019,02,23,09,22,4.10
2019,02,23,09,23,4.20
2019,02,23,09,24,4.20
2019,02,23,09,25,4.20
2019,02,23,09,26,4.20
2019,02,23,09,27,4.30
2019,02,23,09,28,4.30
2019,02,23,09,29,4.30
2019,02,23,09,30,4.30
2019,02,23,09,31,4.30
2019,02,23,09,32,4.30
2019,02,23,09,33,4.30
2019,02,23,09,34,4.30
2019,02,23,09,35,4.30
2019,02,23,09,36,4.40
2019,02,23,09,37,4.40
2019,02,23,09,38,4.40
2019,02,23,09,39,4.40
2019,02,23,09,40,4.40
2019,02,23,09,41,4.40
2019,02,23,09,42,4.40
2019,02,23,09,43,4.40
2019,02,23,09,44,4.40
2019,02,23,09,45,4.40
2019,02,23,09,46,4.30
2019,02,23,09,47,4.30
2019,02,23,09,48,4.30
2019,02,23,09,49,4.30
2019,02,23,09,50,4.30
2019,02,23,09,51,4.30
2019,02,23,09,52,4.30
2019,02,23,09,53,4.30
2019,02,23,09,54,4.40
2019,02,23,09,55,4.30
2019,02,23,09,56,4.30
2019,02,23,09,57,4.30
2019,02,23,09,58,4.30
2019,02,23,09,59,4.30
2019,02,23,10,00,4.30
2019,02,23,10,01,4.30
2019,02,23,10,02,4.30
2019,02,23,10,03,4.30
2019,02,23,10,04,4.20
2019,02,23,10,05,4.20
2019,02,23,10,06,4.20
2019,02,23,10,07,4.20
2019,02,23,10,08,4.30
2019,02,23,10,09,4.30
2019,02,23,10,10,4.20
2019,02,23,10,11,4.20
2019,02,23,10,12,4.20
2019,02,23,10,13,4.30
2019,02,23,10,14,4.30
2019,02,23,10,15,4.30
2019,02,23,10,16,4.30
2019,02,23,10,17,4.30
2019,02,23,10,18,4.20
2019,02,23,10,19,4.20
2019,02,23,10,20,4.20
2019,02,23,10,21,4.20
2019,02,23,10,22,4.20
2019,02,23,10,23,4.20
2019,02,23,10,24,4.20
2019,02,23,10,25,4.20
2019,02,23,10,26,4.20
2019,02,23,10,27,4.10
2019,02,23,10,28,4.10
2019,02,23,10,29,4.10
2019,02,23,10,30,4.10
2019,02,23,10,31,4.10
2019,02,23,10,32,4.10
2019,02,23,10,33,4.10
2019,02,23,10,34,4.10
2019,02,23,10,35,4.10
2019,02,23,10,36,4.10
2019,02,23,10,37,4.10
2019,02,23,10,38,4.00
2019,02,23,10,39,4.00
2019,02,23,10,40,4.00
2019,02,23,10,41,3.90
2019,02,23,10,42,3.90
2019,02,23,10,43,3.80
2019,02,23,10,44,3.80
2019,02,23,10,45,3.70
2019,02,23,10,46,3.70
2019,02,23,10,47,3.70
2019,02,23,10,48,3.60
2019,02,23,10,49,3.60
2019,02,23,10,50,3.60
2019,02,23,10,51,3.60
2019,02,23,10,52,3.60
2019,02,23,10,53,3.60
2019,02,23,10,54,3.60
2019,02,23,10,55,3.60
2019,02,23,10,56,3.60
2019,02,23,10,57,3.60
2019,02,23,10,58,3.50
2019,02,23,10,59,3.50
2019,02,23,11,00,3.50
2019,02,23,11,01,3.50
2019,02,23,11,02,3.50
2019,02,23,11,03,3.40
2019,02,23,11,04,3.40
2019,02,23,11,05,3.30
2019,02,23,11,06,3.30
2019,02,23,11,07,3.20
2019,02,23,11,08,3.20
2019,02,23,11,09,3.10
2019,02,23,11,10,3.10
2019,02,23,11,11,3.00
2019,02,23,11,12,3.00
2019,02,23,11,13,3.00
2019,02,23,11,14,2.90
2019,02,23,11,15,2.90
2019,02,23,11,16,2.90
2019,02,23,11,17,2.90
2019,02,23,11,18,2.90
2019,02,23,11,19,2.80
2019,02,23,11,20,2.80
2019,02,23,11,21,2.80
2019,02,23,11,22,2.80
2019,02,23,11,23,2.90
2019,02,23,11,24,2.90
2019,02,23,11,25,2.90
2019,02,23,11,26,2.90
2019,02,23,11,27,2.90
2019,02,23,11,28,2.80
2019,02,23,11,29,2.80
2019,02,23,11,30,2.80
2019,02,23,11,31,2.80
2019,02,23,11,32,2.80
2019,02,23,11,33,2.80
2019,02,23,11,34,2.80
2019,02,23,11,35,2.80
2019,02,23,11,36,2.80
2019,02,23,11,37,2.90
2019,02,23,11,38,2.90
2019,02,23,11,39,2.90
2019,02,23,11,40,2.90
2019,02,23,11,41,3.00
2019,02,23,11,42,3.00
2019,02,23,11,43,3.10
2019,02,23,11,44,3.10
2019,02,23,11,45,3.10
2019,02,23,11,46,3.20
2019,02,23,11,47,3.20
2019,02,23,11,48,3.30
2019,02,23,11,49,3.30
2019,02,23,11,50,3.30
2019,02,23,11,51,3.30
2019,02,23,11,52,3.30
2019,02,23,11,53,3.30
2019,02,23,11,54,3.30
2019,02,23,11,55,3.30
2019,02,23,11,56,3.30
2019,02,23,11,57,3.30
2019,02,23,11,58,3.20
2019,02,23,11,59,3.20
2019,02,23,12,00,3.20
2019,02,23,12,01,3.20
2019,02,23,12,02,3.20
2019,02,23,12,03,3.20
2019,02,23,12,04,3.20
2019,02,23,12,05,3.20
2019,02,23,12,06,3.20
2019,02,23,12,07,3.20
2019,02,23,12,08,3.20
2019,02,23,12,09,3.20
2019,02,23,12,10,3.20
2019,02,23,12,11,3.20
2019,02,23,12,12,3.20
2019,02,23,12,13,3.20
2019,02,23,12,14,3.30
2019,02,23,12,15,3.30
2019,02,23,12,16,3.30
2019,02,23,12,17,3.30
2019,02,23,12,18,3.30
2019,02,23,12,19,3.30
2019,02,23,12,20,3.40
2019,02,23,12,21,3.40
2019,02,23,12,22,3.40
2019,02,23,12,23,3.40
2019,02,23,12,24,3.40
2019,02,23,12,25,3.40
2019,02,23,12,26,3.40
2019,02,23,12,27,3.50
2019,02,23,12,28,3.50
2019,02,23,12,29,3.50
2019,02,23,12,30,3.50
2019,02,23,12,31,3.50
2019,02,23,12,32,3.50
2019,02,23,12,33,3.50
2019,02,23,12,34,3.50
2019,02,23,12,35,3.60
2019,02,23,12,36,3.60
2019,02,23,12,37,3.60
2019,02,23,12,38,3.60
2019,02,23,12,39,3.60
2019,02,23,12,40,3.60
2019,02,23,12,41,3.60
2019,02,23,12,42,3.60
2019,02,23,12,43,3.60
2019,02,23,12,44,3.60
2019,02,23,12,45,3.60
2019,02,23,12,46,3.50
2019,02,23,12,47,3.40
2019,02,23,12,48,3.40
2019,02,23,12,49,3.40
2019,02,23,12,50,3.40
2019,02,23,12,51,3.40
2019,02,23,12,52,3.50
2019,02,23,12,53,3.50
2019,02,23,12,54,3.50
2019,02,23,12,55,3.60
2019,02,23,12,56,3.60
2019,02,23,12,57,3.60
2019,02,23,12,58,3.70
2019,02,23,12,59,3.70
2019,02,23,13,00,3.70
2019,02,23,13,01,3.80
2019,02,23,13,02,3.80
2019,02,23,13,03,3.90
2019,02,23,13,04,3.90
2019,02,23,13,05,4.00
2019,02,23,13,06,4.10
2019,02,23,13,07,4.20
2019,02,23,13,08,4.30
2019,02,23,13,09,4.50
2019,02,23,13,10,4.50
2019,02,23,13,11,4.60
2019,02,23,13,12,4.60
2019,02,23,13,13,4.60
2019,02,23,13,14,4.70
2019,02,23,13,15,4.70
2019,02,23,13,16,4.80
2019,02,23,13,17,4.80
2019,02,23,13,18,4.80
2019,02,23,13,19,4.90
2019,02,23,13,20,4.90
2019,02,23,13,21,4.90
2019,02,23,13,22,4.90
2019,02,23,13,23,4.90
2019,02,23,13,24,5.00
2019,02,23,13,25,5.00
2019,02,23,13,26,5.00
2019,02,23,13,27,5.00
2019,02,23,13,28,5.00
2019,02,23,13,29,5.00
2019,02,23,13,30,5.10
2019,02,23,13,31,5.10
2019,02,23,13,32,5.20
2019,02,23,13,33,5.20
2019,02,23,13,34,5.20
2019,02,23,13,35,5.30
2019,02,23,13,36,5.30
2019,02,23,13,37,5.30
2019,02,23,13,38,5.40
2019,02,23,13,39,5.40
2019,02,23,13,40,5.40
2019,02,23,13,41,5.50
2019,02,23,13,42,5.50
2019,02,23,13,43,5.50
2019,02,23,13,44,5.50
2019,02,23,13,45,5.60
2019,02,23,13,46,5.60
2019,02,23,13,47,5.60
2019,02,23,13,48,5.70
2019,02,23,13,49,5.70
2019,02,23,13,50,5.70
2019,02,23,13,51,5.80
2019,02,23,13,52,5.80
2019,02,23,13,53,5.90
2019,02,23,13,54,5.90
2019,02,23,13,55,5.90
2019,02,23,13,56,5.90
2019,02,23,13,57,5.90
2019,02,23,13,58,5.90
2019,02,23,13,59,5.90
2019,02,23,14,00,5.90
2019,02,23,14,01,5.90
2019,02,23,14,02,5.90
2019,02,23,14,03,5.90
2019,02,23,14,04,5.90
2019,02,23,14,05,5.90
2019,02,23,14,06,5.90
2019,02,23,14,07,5.90
2019,02,23,14,08,6.00
2019,02,23,14,09,6.00
2019,02,23,14,10,6.10
2019,02,23,14,11,6.00
2019,02,23,14,12,6.00
2019,02,23,14,13,6.00
2019,02,23,14,14,6.00
2019,02,23,14,15,6.00
2019,02,23,14,16,6.00
2019,02,23,14,17,6.00
2019,02,23,14,18,6.10
2019,02,23,14,19,6.20
2019,02,23,14,20,6.20
2019,02,23,14,21,6.20
2019,02,23,14,22,6.20
2019,02,23,14,23,6.20
2019,02,23,14,24,6.20
2019,02,23,14,25,6.20
2019,02,23,14,26,6.20
2019,02,23,14,27,6.20
2019,02,23,14,28,6.20
2019,02,23,14,29,6.20
2019,02,23,14,30,6.20
2019,02,23,14,31,6.20
2019,02,23,14,32,6.30
2019,02,23,14,33,6.30
2019,02,23,14,34,6.20
2019,02,23,14,35,6.30
2019,02,23,14,36,6.30
2019,02,23,14,37,6.40
2019,02,23,14,38,6.40
2019,02,23,14,39,6.40
2019,02,23,14,40,6.40
2019,02,23,14,41,6.40
2019,02,23,14,42,6.40
2019,02,23,14,43,6.30
2019,02,23,14,44,6.30
2019,02,23,14,45,6.20
2019,02,23,14,46,6.10
2019,02,23,14,47,6.00
2019,02,23,14,48,5.90
2019,02,23,14,49,5.80
2019,02,23,14,50,5.80
2019,02,23,14,51,5.70
2019,02,23,14,52,5.70
2019,02,23,14,53,5.80
2019,02,23,14,54,5.80
2019,02,23,14,55,5.80
2019,02,23,14,56,5.90
2019,02,23,14,57,6.00
2019,02,23,14,58,6.00
2019,02,23,14,59,6.10
2019,02,23,15,00,6.10
2019,02,23,15,01,6.10
2019,02,23,15,02,6.10
2019,02,23,15,03,6.10
2019,02,23,15,04,6.10
2019,02,23,15,05,6.10
2019,02,23,15,06,6.10
2019,02,23,15,07,6.00
2019,02,23,15,08,6.00
2019,02,23,15,09,6.00
2019,02,23,15,10,5.90
2019,02,23,15,11,5.90
2019,02,23,15,12,5.80
2019,02,23,15,13,5.80
2019,02,23,15,14,5.70
2019,02,23,15,15,5.70
2019,02,23,15,16,5.70
2019,02,23,15,17,5.60
2019,02,23,15,18,5.60
2019,02,23,15,19,5.60
2019,02,23,15,20,5.60
2019,02,23,15,21,5.60
2019,02,23,15,22,5.60
2019,02,23,15,23,5.60
2019,02,23,15,24,5.60
2019,02,23,15,25,5.60
2019,02,23,15,26,5.60
2019,02,23,15,27,5.60
2019,02,23,15,28,5.60
2019,02,23,15,29,5.60
2019,02,23,15,30,5.60
2019,02,23,15,31,5.50
2019,02,23,15,32,5.50
2019,02,23,15,33,5.50
2019,02,23,15,34,5.50
2019,02,23,15,35,5.50
2019,02,23,15,36,5.50
2019,02,23,15,37,5.50
2019,02,23,15,38,5.50
2019,02,23,15,39,5.50
2019,02,23,15,40,5.50
2019,02,23,15,41,5.40
2019,02,23,15,42,5.40
2019,02,23,15,43,5.40
2019,02,23,15,44,5.40
2019,02,23,15,45,5.50
2019,02,23,15,46,5.50
2019,02,23,15,47,5.50
2019,02,23,15,48,5.50
2019,02,23,15,49,5.50
2019,02,23,15,50,5.50
2019,02,23,15,51,5.50
2019,02,23,15,52,5.50
2019,02,23,15,53,5.50
2019,02,23,15,54,5.50
2019,02,23,15,55,5.50
2019,02,23,15,56,5.50
2019,02,23,15,57,5.50
2019,02,23,15,58,5.50
2019,02,23,15,59,5.50
2019,02,23,16,00,5.50
2019,02,23,16,01,5.50
2019,02,23,16,02,5.50
2019,02,23,16,03,5.50
2019,02,23,16,04,5.50
2019,02,23,16,05,5.50
2019,02,23,16,06,5.40
2019,02,23,16,07,5.40
2019,02,23,16,08,5.40
2019,02,23,16,09,5.40
2019,02,23,16,10,5.40
2019,02,23,16,11,5.40
2019,02,23,16,12,5.40
2019,02,23,16,13,5.40
2019,02,23,16,14,5.40
2019,02,23,16,15,5.40
2019,02,23,16,16,5.40
2019,02,23,16,17,5.40
2019,02,23,16,18,5.40
2019,02,23,16,19,5.50
2019,02,23,16,20,5.40
2019,02,23,16,21,5.40
2019,02,23,16,22,5.40
2019,02,23,16,23,5.40
2019,02,23,16,24,5.40
2019,02,23,16,25,5.40
2019,02,23,16,26,5.40
2019,02,23,16,27,5.40
2019,02,23,16,28,5.30
2019,02,23,16,29,5.30
2019,02,23,16,30,5.30
2019,02,23,16,31,5.30
2019,02,23,16,32,5.30
2019,02,23,16,33,5.30
2019,02,23,16,34,5.30
2019,02,23,16,35,5.30
2019,02,23,16,36,5.30
2019,02,23,16,37,5.20
2019,02,23,16,38,5.20
2019,02,23,16,39,5.20
2019,02,23,16,40,5.20
2019,02,23,16,41,5.20
2019,02,23,16,42,5.20
2019,02,23,16,43,5.20
2019,02,23,16,44,5.20
2019,02,23,16,45,5.20
2019,02,23,16,46,5.20
2019,02,23,16,47,5.20
2019,02,23,16,48,5.20
2019,02,23,16,49,5.20
2019,02,23,16,50,5.20
2019,02,23,16,51,5.20
2019,02,23,16,52,5.20
2019,02,23,16,53,5.20
2019,02,23,16,54,5.20
2019,02,23,16,55,5.20
2019,02,23,16,56,5.20
2019,02,23,16,57,5.20
2019,02,23,16,58,5.20
2019,02,23,16,59,5.20
2019,02,23,17,00,5.20
2019,02,23,17,01,5.20
2019,02,23,17,02,5.20
2019,02,23,17,03,5.20
2019,02,23,17,04,5.20
2019,02,23,17,05,5.20
2019,02,23,17,06,5.20
2019,02,23,17,07,5.20
2019,02,23,17,08,5.20
2019,02,23,17,09,5.20
2019,02,23,17,10,5.20
2019,02,23,17,11,5.20
2019,02,23,17,12,5.20
2019,02,23,17,13,5.20
2019,02,23,17,14,5.20
2019,02,23,17,15,5.20
2019,02,23,17,16,5.10
2019,02,23,17,17,5.10
2019,02,23,17,18,5.10
2019,02,23,17,19,5.10
2019,02,23,17,20,5.10
2019,02,23,17,21,5.10
2019,02,23,17,22,5.10
2019,02,23,17,23,5.10
2019,02,23,17,24,5.00
2019,02,23,17,25,5.00
2019,02,23,17,26,4.90
2019,02,23,17,27,4.90
2019,02,23,17,28,4.80
2019,02,23,17,29,4.80
2019,02,23,17,30,4.70
2019,02,23,17,31,4.70
2019,02,23,17,32,4.60
2019,02,23,17,33,4.60
2019,02,23,17,34,4.50
2019,02,23,17,35,4.50
2019,02,23,17,36,4.40
2019,02,23,17,37,4.40
2019,02,23,17,38,4.40
2019,02,23,17,39,4.30
2019,02,23,17,40,4.30
2019,02,23,17,41,4.30
2019,02,23,17,42,4.20
2019,02,23,17,43,4.20
2019,02,23,17,44,4.20
2019,02,23,17,45,4.20
2019,02,23,17,46,4.20
2019,02,23,17,47,4.10
2019,02,23,17,48,4.10
2019,02,23,17,49,4.10
2019,02,23,17,50,4.00
2019,02,23,17,51,4.00
2019,02,23,17,52,4.00
2019,02,23,17,53,3.90
2019,02,23,17,54,3.90
2019,02,23,17,55,3.80
2019,02,23,17,56,3.80
2019,02,23,17,57,3.80
2019,02,23,17,58,3.80
2019,02,23,17,59,3.80
2019,02,23,18,00,3.80
2019,02,23,18,01,3.80
2019,02,23,18,02,3.70
2019,02,23,18,03,3.80
2019,02,23,18,04,3.70
2019,02,23,18,05,3.70
2019,02,23,18,06,3.70